sat.trackr.live / text

‹ back to catalog

STARLINK-33917

NORAD 64181 · 2025-113M

PAYLOAD ACTIVE UNKNOWN

§ Identity

Operator
Country
US
Launch date
2025-05-28
Launch site
AFETR
Launch vehicle
Mass (kg)
RCS (m²)

Purposes: comms

External: N2YO · Heavens-Above · Gunter

§ Orbital elements

Epoch: 2026-05-25T02:37:09.487776Z

Period
94.11 min
Inclination
53.1594°
Eccentricity
0.0001112
Mean motion
15.30196136 rev/d
Perigee alt
474.5 km
Apogee alt
476.0 km
Semi-major
6,853.4 km
B*
1.3702e-4
RAAN
96.2823°
Arg perigee
100.8495°
Mean anomaly
259.2631°
Rev number
5,676

§ Raw data

STARLINK-339171 64181U 25113M   26145.10913759  .00003701  00000+0  13702-3 0  99912 64181  53.1594  96.2823 0001112 100.8495 259.2631 15.30196136 56768

JSON: /api/v1/satellites/64181 · /tle

For live sub-satellite position, see the globe view (requires WebGL).

§ Visibility from observer

Set your observer location to see the next 7 days of passes ≥ 10°. The values pass through the URL so the page stays shareable.

No JS? Fill the form by hand. The geolocation button needs JavaScript.